NanoFF A

operational
NORAD ID: 58810 Int'l Des: 2023-185 Owner: TUB Country: D
LEOCIRCULARRETROGRADESSO

NanoFF Aについて

説明を読み込み中...

リアルタイム位置

3D地球を読み込み中...

次回通過

高度履歴

Altitude vs Time

uPlot chart will show altitude changes over time

軌道要素

1 58810U 23185T 26063.15667627 .00005610 00000-0 33498-3 0 9990
2 58810 97.5372 132.0901 0009055 315.6848 44.3656 15.11481489117174
Epoch: Mar 4, 2026 • Age: 20 hours

現在のステータス

高度 550.0 km
速度 7.59 km/s
衛星直下点 77.52°N, 114.69°W
打ち上げ日 Dec 1, 2023
運用期間 2.2 years
タイプ other

技術仕様

分類 Payload
質量 2.70 kg
乾燥質量 2.70 kg
総質量 2.70 kg
長さ 0.20 m
直径 0.10 m
スパン 0.20 m
形状 Box
製造者 TUB
バスタイプ Cubesat 2U
フェーズステータス In Orbit
所有者/国 TUB/D

大規模コンステレーション

Loading constellations...